TimeEST,TemperatureF,Dew PointF,Humidity,Sea Level PressureIn,VisibilityMPH,Wind Direction,Wind SpeedMPH,Gust SpeedMPH,PrecipitationIn,Events,Conditions,WindDirDegrees,DateUTC
12:51 AM,53.1,48.9,86,29.92,10.0,West,13.8,-,N/A,,Mostly Cloudy,270,2013-11-23 05:51:00
1:51 AM,54.0,42.1,64,29.93,10.0,NW,23.0,31.1,N/A,,Mostly Cloudy,320,2013-11-23 06:51:00
2:51 AM,48.9,36.0,61,29.95,10.0,NW,20.7,28.8,N/A,,Scattered Clouds,320,2013-11-23 07:51:00
3:51 AM,46.9,30.0,52,29.96,10.0,NW,18.4,25.3,N/A,,Scattered Clouds,320,2013-11-23 08:51:00
4:51 AM,45.0,27.0,49,29.99,10.0,NW,20.7,-,N/A,,Scattered Clouds,320,2013-11-23 09:51:00
5:51 AM,42.1,27.0,55,29.99,10.0,NW,25.3,33.4,N/A,,Partly Cloudy,310,2013-11-23 10:51:00
6:51 AM,39.9,25.0,55,30.02,10.0,NW,21.9,34.5,N/A,,Scattered Clouds,320,2013-11-23 11:51:00
7:51 AM,41.0,24.1,51,30.03,10.0,NNW,19.6,27.6,N/A,,Partly Cloudy,330,2013-11-23 12:51:00
8:51 AM,43.0,23.0,45,30.04,10.0,NNW,18.4,25.3,N/A,,Scattered Clouds,330,2013-11-23 13:51:00
9:51 AM,44.1,21.0,40,30.04,10.0,NNW,19.6,-,N/A,,Scattered Clouds,340,2013-11-23 14:51:00
10:51 AM,46.0,19.9,35,30.02,10.0,NW,13.8,-,N/A,,Scattered Clouds,310,2013-11-23 15:51:00
11:51 AM,48.0,19.0,32,30.00,10.0,WNW,13.8,21.9,N/A,,Scattered Clouds,300,2013-11-23 16:51:00
12:51 PM,46.0,18.0,33,29.97,10.0,West,10.4,-,N/A,,Mostly Cloudy,280,2013-11-23 17:51:00
1:51 PM,48.0,15.1,27,29.94,10.0,WNW,11.5,-,N/A,,Mostly Cloudy,290,2013-11-23 18:51:00
2:51 PM,46.9,12.9,25,29.93,10.0,NW,12.7,-,N/A,,Mostly Cloudy,310,2013-11-23 19:51:00
3:51 PM,46.0,14.0,28,29.92,10.0,West,16.1,23.0,N/A,,Mostly Cloudy,280,2013-11-23 20:51:00
4:51 PM,44.1,15.1,31,29.92,10.0,WNW,20.7,28.8,N/A,,Mostly Cloudy,290,2013-11-23 21:51:00
5:51 PM,44.1,16.0,32,29.93,10.0,West,19.6,35.7,N/A,,Overcast,280,2013-11-23 22:51:00
6:51 PM,43.0,18.0,37,29.94,10.0,West,24.2,33.4,N/A,,Overcast,270,2013-11-23 23:51:00
7:51 PM,39.0,25.0,57,29.95,7.0,WNW,26.5,38.0,0.00,,Unknown,300,2013-11-24 00:51:00
8:36 PM,33.8,26.6,75,29.98,9.0,NNW,17.3,-,0.00,Snow,Light Snow,330,2013-11-24 01:36:00
8:51 PM,35.1,24.1,64,29.98,10.0,NW,20.7,29.9,0.00,,Scattered Clouds,320,2013-11-24 01:51:00
9:51 PM,35.1,12.9,40,30.00,10.0,WNW,21.9,31.1,N/A,,Scattered Clouds,300,2013-11-24 02:51:00
10:51 PM,34.0,8.1,34,30.01,10.0,WNW,24.2,36.8,N/A,,Partly Cloudy,290,2013-11-24 03:51:00
11:51 PM,32.0,6.1,34,30.01,10.0,NW,17.3,24.2,N/A,,Scattered Clouds,310,2013-11-24 04:51:00